{"data":{"norad_id":59329,"intl_designator":"2024-057K","name":"STARLINK-31493","alt_names":[],"object_type":"PAYLOAD","status":"ACTIVE","operator":null,"country":"US","launch_date":"2024-03-25","launch_site_code":"AFETR","launch_vehicle":null,"mission":null,"orbit_class":"UNKNOWN","rcs_meters":null,"size_class":null,"mass_kg":null,"dimensions":null,"purposes":["comms"],"wikipedia_slug":null,"has_3d_model":false,"image_url":null,"decayed_at":null,"tle_current":{"epoch":"2026-05-25T05:06:21.572352Z","epoch_age_seconds":53881,"freshness":"FRESH","line1":"1 59329U 24057K   26145.21274968  .00000842  00000+0  40111-4 0  9997","line2":"2 59329  43.0005 114.7967 0001061 269.9752  90.0978 15.27574867121543","mean_motion":15.27574867,"eccentricity":0.0001061,"inclination_deg":43.0005,"raan_deg":114.7967,"arg_perigee_deg":269.9752,"mean_anomaly_deg":90.0978,"bstar":4.0111e-5,"rev_number":12154,"period_min":94.26706547143,"perigee_km":482.33649265572,"apogee_km":483.79243960684,"semimajor_km":6861.2014661313,"source":"CELESTRAK","updated_at":"2026-05-25T13:38:18.904507Z"}}}